TimePST,TemperatureF,Dew PointF,Humidity,Sea Level PressureIn,VisibilityMPH,Wind Direction,Wind SpeedMPH,Gust SpeedMPH,PrecipitationIn,Events,Conditions,WindDirDegrees,DateUTC
12:56 AM,53.1,50.0,89,30.44,10.0,South,12.7,-,N/A,,Overcast,170,2013-03-01 08:56:00
1:56 AM,53.1,50.0,89,30.45,10.0,South,6.9,-,N/A,,Overcast,170,2013-03-01 09:56:00
2:56 AM,53.1,50.0,89,30.45,10.0,South,6.9,-,N/A,,Overcast,180,2013-03-01 10:56:00
4:19 AM,51.8,48.2,88,30.44,10.0,SSE,4.6,-,N/A,,Overcast,160,2013-03-01 12:19:00
4:56 AM,53.1,50.0,89,30.44,10.0,South,9.2,-,N/A,,Overcast,190,2013-03-01 12:56:00
5:56 AM,53.1,48.9,86,30.44,10.0,South,9.2,-,N/A,,Overcast,190,2013-03-01 13:56:00
6:52 AM,51.8,48.2,88,30.43,10.0,South,9.2,-,N/A,,Mostly Cloudy,190,2013-03-01 14:52:00
6:56 AM,53.1,48.9,86,30.43,10.0,South,10.4,-,N/A,,Mostly Cloudy,190,2013-03-01 14:56:00
7:43 AM,51.8,50.0,94,30.44,10.0,SSE,4.6,-,N/A,,Clear,150,2013-03-01 15:43:00
7:56 AM,53.1,50.0,89,30.45,10.0,SE,6.9,-,N/A,,Scattered Clouds,140,2013-03-01 15:56:00
8:56 AM,54.0,50.0,86,30.45,10.0,South,8.1,-,N/A,,Mostly Cloudy,180,2013-03-01 16:56:00
9:56 AM,55.9,50.0,80,30.44,10.0,South,10.4,-,N/A,,Mostly Cloudy,180,2013-03-01 17:56:00
10:56 AM,57.9,50.0,75,30.43,10.0,South,10.4,-,N/A,,Mostly Cloudy,170,2013-03-01 18:56:00
11:56 AM,59.0,48.9,69,30.44,10.0,SSW,12.7,-,N/A,,Mostly Cloudy,200,2013-03-01 19:56:00
12:13 PM,60.8,48.2,63,30.43,10.0,SSW,12.7,-,N/A,,Mostly Cloudy,210,2013-03-01 20:13:00
12:56 PM,60.1,48.9,67,30.41,10.0,SSW,10.4,-,N/A,,Mostly Cloudy,210,2013-03-01 20:56:00
1:56 PM,62.1,50.0,65,30.39,10.0,SSE,6.9,-,N/A,,Mostly Cloudy,160,2013-03-01 21:56:00
2:56 PM,62.1,48.9,62,30.38,10.0,South,4.6,-,N/A,,Mostly Cloudy,180,2013-03-01 22:56:00
3:56 PM,61.0,48.9,64,30.36,10.0,SSE,4.6,-,N/A,,Mostly Cloudy,150,2013-03-01 23:56:00
4:56 PM,61.0,50.0,67,30.35,10.0,West,5.8,-,N/A,,Scattered Clouds,260,2013-03-02 00:56:00
5:56 PM,57.0,50.0,77,30.34,10.0,West,4.6,-,N/A,,Clear,270,2013-03-02 01:56:00
6:56 PM,53.1,48.9,86,30.34,10.0,Calm,Calm,-,N/A,,Clear,0,2013-03-02 02:56:00
7:56 PM,50.0,48.0,93,30.34,10.0,Calm,Calm,-,N/A,,Clear,0,2013-03-02 03:56:00
8:56 PM,50.0,48.9,96,30.34,10.0,Calm,Calm,-,N/A,,Mostly Cloudy,0,2013-03-02 04:56:00
9:56 PM,50.0,48.0,93,30.34,10.0,Calm,Calm,-,N/A,,Overcast,0,2013-03-02 05:56:00
10:56 PM,51.1,48.9,92,30.33,10.0,Calm,Calm,-,N/A,,Overcast,0,2013-03-02 06:56:00
11:56 PM,50.0,48.9,96,30.32,10.0,Calm,Calm,-,N/A,,Overcast,0,2013-03-02 07:56:00